Tracking 31027 objects as of 19-Jul-2025
HD Live streaming from Space Station
objects crossing your sky now

OBJECT F

Track OBJECT F now!
10-day predictions


NORAD ID: 47859
Int'l Code: 2021-020F
Perigee: 992.9 km
Apogee: 1,206.0 km
Inclination: 63.4 °
Period: 107.1 minutes
Semi major axis: 7470 km
RCS: Unknown
Launch date: March 13, 2021
Source: People's Republic of China (PRC)
Launch site: Jiuquan Satellite Launch Center, China (JSC)
Your satellite tracking list
Your tracking list is empty




NASA's NSSDC Master Catalog

Two Line Element Set (TLE):
1 47859U 21020F   25199.26460717 -.00000087  00000-0  45591-5 0  9992
2 47859  63.4090  42.7922 0142581   1.1642 358.9689 13.44569353213500
Source of the keplerian elements: AFSPC